Погода в Москоу

США     46°43′45″N   116°59′51″W
темп.,
°C
ветер,
м/с
пор.,
м/с
влажн.,
%
обл.,
%
осадки,
мм/ч
давл.,
гПа
погр.,
м
24 сентября, пт
пт2423:00+13всв22600 0.0 102210
02:00+12в22650 0.0 102210
05:00+10в22700 0.0 102212
08:00+12вюв23620 0.0 102189
11:00+19вюв33363 0.0 1019565
14:00+24вюв22215 0.0 10161024
17:00+24вюв11194 0.0 1013938
20:00+18всв11275 0.0 101311
25 сентября, сб
сб2523:00+16в2231100 0.0 101212
02:00+15в2234100 0.0 101215
05:00+14вюв333898 0.0 101230
08:00+15вюв23395 0.0 101282
11:00+22ююв23240 0.0 1011529
14:00+26юз45180 0.0 10081218
17:00+26з46205 0.0 10071108
20:00+19св11335 0.0 100711
26 сентября, вс
вс2623:00+18вюв2238100 0.0 100813
02:00+17вюв3239100 0.0 100723
05:00+15вюв224021 0.0 100716
08:00+16юв233955 0.0 100768
11:00+22зюз5828100 0.0 10071010
14:00+24зюз9122442 0.0 10061553
17:00+23з81323100 0.0 10051231
20:00+19з6142710 0.0 1008646
27 сентября, пн
пн2723:00+16зюз410325 0.0 1010217
02:00+14ююз25405 0.0 101196
05:00+13юз236368 0.0 101147
08:00+14вюв2256100 0.0 101288
11:00+19ю233356 0.0 1011763
14:00+22зсз463338 0.0 10081525
17:00+21зсз463688 0.0 1006614
20:00+17зсз5851100 0.0 1008665
28 сентября, вт
вт2823:00+14зсз3674100 0.6 1009537
02:00+11з4591100 2.5 1010311
05:00+10юз1387100 10.1 1011298
08:00+10юз2483100 2.9 1012447
11:00+10з6870100 4.3 1013819
14:00+10зюз7860100 0.3 10141217
17:00+11зюз6858100 0.3 10131346
20:00+9юз4966100 0.0 1015573